Theta_e
318 320 323 324 322 320 318 320 321 319 319 317 317 316 315 317 316 317 318 319 322 325 321 324 325 326 323 328 330 330 329 328 326 327 329 330 329 326 323 319 317 317 318 318
320 321 319 321 321 321 321 322 321 320 319 318 319 319 315 315 317 318 320 320 318 319 321 321 324 326 325 323 328 330 331 330 329 328 327 327 327 326 325 320 318 317 317 318
321 319 318 320 321 322 320 321 321 322 317 316 317 319 318 315 319 320 321 322 322 322 320 319 320 323 326 324 324 327 329 331 331 331 329 326 328 328 326 324 318 316 317 318
319 318 319 320 322 321 322 319 322 323 320 323 317 322 321 318 318 316 319 321 323 323 323 323 320 319 323 324 324 324 327 329 331 331 331 330 326 326 326 325 321 314 316 317
320 318 319 320 320 319 320 320 322 321 319 320 322 325 320 317 318 318 319 320 322 323 324 323 322 321 320 323 324 323 325 327 328 331 331 331 331 329 326 326 325 318 315 315
318 318 318 318 318 318 317 318 318 317 319 324 321 322 319 319 318 317 318 322 323 323 323 323 324 322 322 322 324 324 325 326 328 329 330 331 331 330 329 327 325 321 315 316
319 318 316 318 319 319 319 321 323 325 324 321 315 318 320 316 316 317 319 321 322 322 322 323 324 322 322 322 321 324 325 325 325 327 328 328 330 329 327 325 323 320 317 316
318 319 317 317 318 319 320 320 317 320 320 317 314 320 318 316 318 319 320 320 321 321 322 322 323 324 322 321 320 320 324 324 325 326 326 326 328 328 328 327 326 327 325 323
320 319 316 316 316 318 320 321 314 312 299 311 314 313 312 311 312 314 315 319 320 320 320 320 322 323 324 322 320 319 320 322 323 324 325 325 326 327 327 327 328 329 329 328
317 319 316 316 316 316 319 318 320 314 313 315 314 313 315 313 316 315 312 314 318 320 319 317 316 317 319 321 322 319 317 318 319 322 325 325 325 326 327 328 328 328 329 329
316 317 316 316 318 320 318 321 318 317 312 315 313 313 309 314 314 314 314 315 317 319 320 318 315 316 316 316 318 319 318 317 317 319 322 325 326 326 327 328 329 329 330 330
315 316 316 319 317 316 318 319 319 321 318 312 311 315 309 309 310 312 314 316 318 318 318 316 314 313 313 314 315 316 317 317 317 319 321 322 324 325 326 326 326 325 328 327
314 315 317 318 317 313 319 319 319 319 312 317 318 317 307 304 305 308 312 315 315 314 312 312 312 312 311 311 311 311 311 311 310 311 312 313 315 317 318 320 322 325 326 325
313 312 314 317 317 318 319 319 318 320 320 319 317 316 311 308 307 306 309 313 315 314 311 312 312 312 312 311 312 311 311 311 311 310 310 309 309 309 310 313 316 319 322 324
314 314 311 312 314 316 319 319 319 320 319 319 318 316 315 312 306 307 311 310 310 310 312 313 312 312 311 311 311 311 311 311 311 311 311 310 309 309 309 309 309 309 310 311
311 315 313 314 313 314 317 318 319 318 319 319 318 317 314 314 313 307 309 309 309 310 312 312 312 311 311 311 311 311 310 310 310 310 309 309 308 308 308 308 308 308 309 309
311 314 314 316 313 313 316 318 318 319 318 318 319 317 310 309 307 307 309 309 310 311 311 312 313 312 311 311 310 310 310 309 309 309 309 309 308 308 308 308 308 309 309 310
307 309 313 316 315 318 315 312 316 318 318 317 318 317 315 313 314 315 313 312 311 311 311 313 313 311 311 310 310 310 309 309 309 308 308 308 308 308 308 308 308 308 309 309
306 306 308 312 315 315 312 310 315 316 317 316 317 317 316 314 313 312 316 316 316 312 311 314 313 311 311 311 310 309 308 308 308 308 307 307 307 307 308 308 308 308 308 308
307 307 307 309 314 316 314 312 313 314 318 315 316 316 316 312 313 314 314 315 310 310 311 313 311 311 311 310 309 308 308 307 307 307 307 307 307 307 307 307 307 307 307 307
308 308 308 310 311 312 309 306 313 317 317 315 315 315 316 313 315 316 315 314 310 310 311 310 311 311 311 309 308 307 307 307 307 307 307 307 307 307 307 307 307 307 307 307
313 314 313 312 316 317 304 310 315 315 314 313 314 315 315 316 315 314 315 314 311 311 311 311 312 312 309 307 306 307 306 307 307 307 307 307 306 306 306 306 306 306 306 306
311 312 313 313 314 304 311 312 313 315 313 314 313 313 314 314 314 314 314 313 312 311 311 312 311 308 307 306 306 306 307 307 306 305 305 305 305 305 305 305 305 305 305 304
308 307 311 310 312 305 306 310 313 311 312 312 312 312 313 313 313 312 313 312 311 310 311 311 308 306 306 307 306 306 306 305 304 304 304 305 304 304 304 304 304 304 304 304
304 305 308 309 304 304 305 308 309 310 309 308 309 309 310 312 312 311 310 310 310 310 309 307 306 306 306 306 305 304 304 304 304 304 304 304 303 303 302 301 301 300 300 300
291 293 306 311 292 292 304 304 306 307 310 310 309 309 309 310 312 310 310 310 310 308 306 306 305 305 306 304 304 303 303 303 303 302 302 300 299 297 296 296 296 295 294 294
Wind_Speed
7 7 8 5 7 2 5 4 5 3 3 4 7 12 10 25 16 18 16 24 31 34 31 30 27 29 29 33 33 33 32 35 35 35 34 32 32 28 26 27 25 24 24 23
5 18 24 5 3 7 3 2 3 4 3 4 7 14 10 13 19 27 28 27 25 32 35 33 30 30 31 34 34 34 34 33 35 37 38 37 35 32 28 27 27 27 26 25
10 2 16 8 6 8 4 6 3 5 2 3 3 12 11 8 26 32 32 31 32 34 35 34 35 35 33 33 37 36 34 35 34 34 38 39 38 37 35 33 31 29 29 27
8 5 15 14 10 10 11 7 5 4 3 5 5 7 7 6 14 12 31 37 38 39 39 39 37 35 38 35 33 35 35 35 34 34 37 39 42 43 39 37 32 30 31 30
9 12 14 13 17 14 6 7 11 1 3 5 4 4 5 2 7 10 23 34 42 44 42 41 41 39 33 37 35 33 35 36 36 36 38 38 40 44 42 41 38 35 33 34
8 9 12 9 9 15 6 5 2 3 2 10 10 9 6 8 7 8 18 33 35 33 34 37 41 39 39 36 41 37 36 36 37 36 38 41 41 40 43 43 42 39 37 36
12 10 4 11 6 6 8 9 3 6 7 11 6 8 20 6 9 11 17 31 34 29 31 26 32 38 38 39 39 41 39 37 35 35 38 41 42 40 41 41 40 40 40 39
13 11 15 15 13 10 25 17 5 8 6 5 4 10 7 13 30 33 34 31 28 26 25 25 25 28 38 36 36 38 40 38 37 36 36 38 40 41 40 41 40 39 39 38
15 17 7 10 7 15 9 14 8 5 2 2 5 8 7 10 11 19 26 34 39 25 20 20 22 23 25 34 35 36 38 38 38 38 37 37 38 39 40 39 39 38 38 37
4 11 9 14 4 5 13 14 5 1 4 6 6 6 10 6 21 19 13 26 36 34 19 14 13 13 16 22 30 33 35 35 34 35 38 38 37 36 36 37 36 37 37 37
8 3 1 11 16 23 11 15 8 6 5 5 3 8 8 19 16 18 20 29 28 33 29 21 17 16 17 18 20 25 27 27 28 29 31 33 35 35 35 36 36 38 38 38
11 0 3 18 10 14 19 13 20 7 13 4 2 11 5 10 8 4 13 20 19 21 24 23 19 16 15 14 13 15 19 22 23 25 27 29 29 31 33 35 35 34 35 36
19 6 5 5 7 4 17 23 25 24 2 17 10 15 4 5 6 14 14 15 18 20 21 20 17 15 12 12 11 10 11 13 16 18 21 24 27 29 30 31 31 32 32 33
20 11 9 14 6 5 20 25 24 25 14 24 21 29 5 5 6 6 13 19 25 25 25 20 19 17 15 13 11 11 10 11 11 12 14 16 19 22 24 26 28 29 30 31
11 21 23 24 18 8 12 26 26 24 33 19 31 20 23 12 7 12 18 18 23 27 29 23 20 20 18 17 14 12 10 11 12 15 16 17 18 19 21 22 24 25 26 26
6 6 17 23 22 22 20 20 26 27 30 25 32 24 9 22 23 9 19 24 29 32 34 26 22 21 19 16 14 13 14 15 16 17 17 16 16 16 16 16 16 17 18 19
4 10 7 17 13 8 14 29 29 31 34 33 31 40 6 9 12 25 28 30 35 38 37 30 26 23 21 18 16 16 17 17 18 18 18 18 17 15 15 14 14 14 14 15
8 8 12 10 13 24 17 5 28 33 34 31 33 24 23 21 35 40 42 38 41 41 36 31 28 27 23 19 17 17 18 19 19 18 19 18 16 15 13 13 13 12 12 13
17 10 6 7 21 14 9 9 20 27 33 30 29 32 30 21 20 31 46 48 52 48 38 33 31 28 24 20 18 18 20 20 19 18 16 14 13 11 11 11 11 12 13 14
20 18 12 12 18 28 26 33 20 14 23 25 34 33 28 19 10 23 39 42 45 43 40 37 33 27 22 21 21 21 20 19 17 14 12 10 8 8 8 8 8 8 10 10
11 9 18 19 17 11 14 11 33 18 22 34 42 47 41 17 37 55 32 40 45 44 38 34 29 24 21 21 20 19 18 16 14 12 10 8 6 5 4 4 3 3 5 5
13 9 12 13 11 16 14 22 27 35 34 7 46 56 36 50 50 35 31 35 47 42 39 35 30 26 23 21 19 18 17 16 16 15 14 11 8 5 4 2 2 4 5 5
6 11 13 11 14 3 31 22 25 19 31 31 33 29 45 42 46 46 42 39 45 43 42 36 30 27 25 24 23 21 21 20 17 14 10 8 6 4 3 1 2 2 3 4
4 4 7 4 16 11 23 18 41 17 26 26 22 20 27 45 45 49 46 45 46 45 41 36 33 30 30 28 26 22 21 20 16 14 12 8 5 3 1 1 0 0 1 2
2 4 10 13 2 4 13 36 23 29 14 9 12 13 16 31 41 48 47 48 48 43 38 35 34 34 31 30 27 24 22 19 16 13 10 9 7 6 6 5 4 3 4 4
5 1 4 5 9 12 6 7 32 28 29 28 14 13 18 28 41 42 45 46 44 41 38 36 35 34 33 32 27 25 21 17 15 13 12 12 11 11 10 8 6 6 5 5
Wind_Direction
159 204 234 201 219 175 152 169 175 219 263 196 237 250 247 255 256 254 255 243 242 242 245 242 240 236 234 227 226 224 228 228 231 234 235 236 238 240 240 240 239 240 241 241
149 214 210 186 251 222 160 206 219 296 271 174 283 268 242 244 253 256 258 250 246 246 248 247 241 235 234 231 227 227 226 228 231 235 238 238 241 244 246 249 245 243 243 245
194 326 173 184 178 204 196 177 189 206 317 220 279 272 264 241 243 253 254 251 252 250 249 250 247 240 236 235 233 229 229 227 233 237 239 239 242 245 247 247 247 244 245 246
222 179 173 182 210 200 228 170 205 219 166 226 160 280 247 237 244 236 248 247 248 248 249 251 247 245 236 239 239 237 236 233 232 234 238 241 243 245 248 250 252 251 248 248
199 193 182 193 199 190 206 159 209 245 276 339 217 275 268 254 256 246 246 247 250 249 248 248 246 242 242 240 241 241 238 238 237 236 239 243 246 248 252 253 254 253 253 251
214 198 179 196 183 180 130 93 91 73 131 255 222 216 205 213 207 241 252 256 256 253 253 253 247 247 245 245 240 240 238 241 240 239 241 244 247 248 251 252 254 256 256 255
204 194 180 176 146 146 174 159 186 199 211 244 182 199 245 231 237 241 252 252 257 258 256 252 243 243 241 242 241 241 239 240 243 244 245 245 248 251 254 256 258 260 261 261
205 214 182 195 195 176 197 185 170 194 204 258 92 232 244 211 233 247 254 263 264 261 256 249 247 242 239 242 241 242 242 244 244 247 250 250 250 252 255 257 258 262 264 268
197 225 153 190 182 163 188 208 187 99 64 51 217 282 288 250 262 258 252 250 251 252 242 245 243 237 236 239 243 244 245 247 248 248 252 254 253 253 256 259 263 265 268 270
237 231 199 187 149 242 184 179 183 140 165 245 255 264 236 233 223 231 244 233 243 239 244 238 225 224 230 237 240 243 246 249 253 254 253 255 258 260 263 265 267 270 272 274
217 196 259 165 199 192 188 194 197 182 173 196 258 254 209 217 216 232 233 234 242 233 238 237 230 232 235 239 237 235 235 239 245 250 251 254 256 259 262 263 265 267 271 272
188 124 227 222 213 228 208 205 203 212 218 222 178 258 242 235 251 278 237 236 228 222 220 219 221 222 226 227 223 224 229 237 244 249 252 254 257 259 261 263 265 267 268 271
200 195 209 172 242 274 212 208 202 212 84 216 218 255 194 224 251 242 236 221 202 203 203 200 202 204 199 196 197 203 210 220 231 238 244 249 252 254 257 261 264 265 266 267
179 204 219 232 244 122 213 215 213 206 224 234 227 247 234 240 254 251 217 217 200 197 189 185 186 185 184 182 181 187 197 210 222 229 234 239 243 247 250 253 256 259 259 260
236 228 231 234 236 247 237 217 208 206 222 218 240 236 241 264 241 233 219 204 195 188 186 187 185 185 189 192 195 204 216 225 231 237 241 244 246 247 250 252 254 256 256 257
235 238 221 243 246 243 242 230 216 217 226 230 248 245 226 222 254 239 218 203 197 197 198 194 195 195 198 201 209 223 234 239 241 245 249 253 255 257 259 260 261 264 266 266
266 236 226 233 222 227 246 219 219 218 225 217 230 235 130 192 213 225 224 213 211 210 203 200 202 202 204 210 218 229 238 244 244 245 250 253 256 258 257 255 254 255 257 260
203 264 245 257 204 229 236 229 219 220 224 220 232 240 222 216 219 230 236 222 220 221 205 205 207 205 207 216 228 237 240 240 240 243 246 248 250 251 253 252 252 255 261 268
214 187 259 276 247 261 271 213 200 209 233 228 234 244 239 236 228 244 236 237 235 225 208 211 210 206 211 223 234 235 234 235 237 239 243 247 248 252 256 261 261 263 266 272
201 211 204 237 268 239 239 235 190 189 250 223 222 235 229 195 221 243 228 234 231 215 211 210 204 210 221 230 232 230 229 229 229 233 234 234 238 240 244 254 266 277 282 288
193 199 218 230 241 255 237 164 153 185 230 232 215 228 227 202 221 238 230 227 218 217 207 200 206 216 224 228 225 220 217 210 207 201 200 194 179 184 189 216 245 266 279 284
186 187 222 220 216 255 161 147 169 214 209 253 210 224 225 219 228 227 224 218 207 203 197 201 206 214 220 220 216 205 197 188 184 168 175 173 176 180 193 221 265 281 303 316
205 195 215 208 224 320 173 196 192 219 203 233 219 227 222 224 220 219 215 209 203 201 197 198 206 208 206 204 197 192 181 177 172 168 166 166 175 187 194 211 279 320 327 318
250 133 235 154 237 227 216 220 206 210 217 231 237 235 228 220 216 213 212 198 194 193 195 199 199 199 197 190 186 181 182 177 167 170 175 177 176 161 140 115 161 292 348 360
135 157 201 250 293 331 243 225 233 228 230 235 231 236 242 221 209 207 195 189 190 193 195 195 195 191 188 184 180 180 181 173 168 173 172 173 175 168 156 153 124 76 52 36
352 299 209 212 15 316 278 272 246 244 237 242 272 262 246 226 212 202 196 190 191 192 192 190 189 186 183 180 178 180 175 169 172 176 173 175 168 158 153 146 130 108 86 72